Location: Arbon
(43.0005°N, 0.7472°E)
Time: 22:22:46
(UTC+00:00)

Altair - Pass Details

Date: 28 November 2020
Orbit: 1501 x 1682 km, 47.2° (Epoch: 26 January)

Event Time Altitude Azimuth Distance (km) Brightness Sun altitude
Rises 03:15:42 0° 295° (WNW) 4,638 - -41.4°
Reaches altitude 10° 03:18:50 10° 290° (WNW) 3,656 - -40.8°
Maximum altitude 03:27:26 47° 221° (SW) 1,932 - -39.3°
Exits shadow 03:31:20 32° 171° (S) 2,407 8.4 -38.6°
Drops below altitude 10° 03:36:11 10° 151° (SSE) 3,720 9.7 -37.7°
Sets 03:39:26 0° 146° (SE) 4,725 10.4 -37.1°
